Simultaneous Nadir Overpasses (SNOs) Predictions

Prediction of SNOs between AQUA and GOES-15 Satellite Orbit:

Table of predicted SNOs for the next 14.0 days since TLE Epoch: 7/13/2013
Index Date Time (AQUA) AQUA Lat,Lon GOES-15 Lat,Lon Distance(km) Time Diff (sec)
1 07/14/2013 10:32:18 -0.42,-134.20 -0.20,-135.32 126.98 80
2 07/14/2013 22:53:43 -0.63,-139.40 0.22,-135.31 464.12 80
3 07/16/2013 10:20:06 -1.08,-131.24 -0.20,-135.34 465.81 80
4 07/16/2013 22:41:30 -0.03,-136.43 0.22,-135.33 125.47 80
5 07/18/2013 22:29:18 0.64,-133.48 0.22,-135.34 212.24 80
6 07/19/2013 10:50:33 0.46,-138.64 -0.24,-135.36 372.90 80
7 07/21/2013 10:38:20 -0.16,-135.67 -0.24,-135.36 36.10 80
8 07/23/2013 10:26:07 -0.78,-132.71 -0.24,-135.36 300.47 80
9 07/23/2013 22:47:30 -0.32,-137.91 0.25,-135.35 291.50 80
10 07/25/2013 22:35:17 0.32,-134.94 0.25,-135.34 44.98 80




NCC Satellite Simultaneous Nadir Overpasses (SNOs) Prediction Service
